FW7989 Weather Reports


time (UTC)temp
F
wind
direction
speed
knots
gust
knots
rain 1hr
in
rain 24hr
in
rain mn
in
humidity
%
barometer
mb
20260503224059 52 121 0.0 1.7 0.00 0.04 0.04 92 1011.8
20260503223558 51 0 0.0 3.5 0.00 0.04 0.04 92 1011.8
20260503223057 52 0 0.0 3.5 0.00 0.04 0.04 92 1011.7
20260503222558 52 114 0.9 3.5 0.00 0.04 0.04 92 1011.5
20260503222058 52 82 0.9 3.5 0.00 0.04 0.04 92 1011.6
20260503221559 52 129 0.9 3.5 0.00 0.04 0.04 92 1011.5
20260503221101 52 127 0.9 2.6 0.00 0.04 0.04 91 1011.5
20260503220559 52 137 0.9 2.6 0.00 0.04 0.04 91 1011.5
20260503220100 52 54 0.9 1.7 0.00 0.04 0.04 91 1011.6
20260503215558 52 323 0.9 1.7 0.00 0.05 0.04 90 1011.5
20260503215058 52 323 0.0 1.7 0.00 0.05 0.04 90 1011.4
20260503214557 52 323 0.9 1.7 0.00 0.05 0.04 91 1011.4
20260503214058 52 323 0.0 1.7 0.00 0.05 0.04 91 1011.4
20260503213604 52 0 0.0 1.7 0.00 0.05 0.04 91 1011.4
20260503213058 52 323 0.9 1.7 0.00 0.05 0.04 91 1011.5
20260503212558 52 0 0.0 1.7 0.00 0.05 0.04 90 1011.5
20260503212058 53 0 0.0 1.7 0.00 0.05 0.04 90 1011.5
20260503211603 53 323 0.0 1.7 0.00 0.05 0.04 90 1011.4
20260503211057 53 0 0.0 1.7 0.00 0.05 0.04 91 1011.4
20260503210558 53 323 0.0 1.7 0.00 0.05 0.04 91 1011.3
20260503210057 53 323 0.9 1.7 0.00 0.05 0.04 91 1011.3
20260503205558 53 323 0.0 1.7 0.00 0.05 0.04 91 1011.3
20260503205102 53 0 0.0 0.9 0.00 0.05 0.04 90 1011.3
20260503204600 53 0 0.0 0.9 0.00 0.05 0.04 91 1011.2
20260503204100 53 0 0.0 1.7 0.00 0.05 0.04 91 1011.3
20260503203601 53 323 0.0 1.7 0.00 0.05 0.04 91 1011.2
20260503203109 53 0 0.0 1.7 0.00 0.05 0.04 91 1011.3
20260503202558 53 0 0.0 1.7 0.00 0.05 0.04 91 1011.2
20260503202101 53 0 0.0 1.7 0.00 0.05 0.04 91 1011.1
20260503201600 53 323 0.9 1.7 0.00 0.05 0.04 91 1011.1
20260503201103 53 0 0.0 0.9 0.00 0.05 0.04 91 1011.0
20260503200558 53 323 0.0 0.9 0.00 0.05 0.04 91 1010.9
20260503200057 53 323 0.0 1.7 0.00 0.05 0.04 90 1010.8
20260503195558 53 0 0.0 1.7 0.00 0.06 0.04 89 1010.7
20260503195058 54 323 0.0 1.7 0.00 0.06 0.04 87 1010.6
20260503194602 54 0 0.0 1.7 0.00 0.06 0.04 87 1010.5
20260503194059 55 332 0.0 1.7 0.00 0.06 0.04 89 1010.3
20260503193558 55 332 0.0 1.7 0.00 0.06 0.04 89 1010.3
20260503193056 55 332 0.9 1.7 0.00 0.06 0.04 89 1010.3
20260503192558 55 332 0.0 1.7 0.00 0.06 0.04 88 1010.3
20260503192058 55 0 0.0 0.9 0.00 0.06 0.04 87 1010.2
20260503191600 56 0 0.0 0.9 0.00 0.06 0.04 87 1010.3
20260503191100 56 332 0.0 0.9 0.00 0.06 0.04 88 1010.2
20260503190559 56 0 0.0 1.7 0.00 0.06 0.04 87 1010.1
20260503190057 56 0 0.0 1.7 0.00 0.06 0.04 87 1010.0
20260503185558 56 0 0.0 1.7 0.00 0.11 0.04 86 1010.0
20260503185058 56 294 0.9 2.6 0.00 0.11 0.04 86 1009.9
20260503184616 56 294 0.9 2.6 0.00 0.11 0.04 86 1009.9
20260503184058 57 305 0.9 2.6 0.00 0.11 0.04 86 1009.8
20260503183558 57 294 1.7 2.6 0.00 0.11 0.04 86 1009.7
20260503183101 57 294 0.9 2.6 0.00 0.11 0.04 86 1009.7
20260503182557 57 294 0.0 0.9 0.00 0.11 0.04 85 1009.7
20260503182058 58 0 0.0 1.7 0.00 0.11 0.04 86 1009.6
20260503181559 58 0 0.0 2.6 0.00 0.11 0.04 85 1009.7
20260503181057 58 0 0.9 2.6 0.00 0.11 0.04 85 1009.6
20260503180557 58 294 0.9 2.6 0.00 0.11 0.04 85 1009.6
20260503180058 59 298 0.9 3.5 0.01 0.11 0.04 84 1009.6
20260503175557 59 296 0.9 4.3 0.03 0.41 0.04 83 1009.6
20260503175057 59 0 1.7 4.3 0.03 0.41 0.04 83 1009.5
20260503174601 60 291 1.7 3.5 0.03 0.41 0.04 82 1009.5
20260503174057 60 0 0.9 3.5 0.03 0.41 0.04 82 1009.4
20260503173557 61 321 0.9 3.5 0.03 0.41 0.04 81 1009.4
20260503173059 61 301 0.9 3.5 0.03 0.41 0.04 83 1009.4
20260503172557 61 296 1.7 3.5 0.03 0.41 0.04 82 1009.3
20260503172056 61 347 1.7 3.5 0.03 0.41 0.04 82 1009.4
20260503171613 61 294 0.9 2.6 0.03 0.41 0.04 82 1009.3
20260503171101 61 271 0.0 3.5 0.03 0.41 0.04 83 1009.3
20260503170558 60 284 0.9 3.5 0.03 0.40 0.03 84 1009.3
20260503170105 60 290 0.9 3.5 0.01 0.39 0.02 82 1009.3
20260503150558 64 150 4.3 10.4 0.00 0.70 0.00 73 1009.4
20260503131101 64 214 1.7 6.1 0.00 0.79 0.00 69 1009.9
20260503130559 64 146 2.6 8.7 0.00 0.79 0.00 68 1010.0
20260503110558 61 186 3.5 6.1 0.00 0.79 0.00 77 1010.2
20260503110108 61 173 3.5 7.0 0.00 0.79 0.00 79 1010.3
20260503090112 58 178 1.7 5.2 0.00 0.79 0.00 84 1010.1
20260503081602 57 0 0.9 6.1 0.00 0.79 0.00 87 1010.3
20260503081057 57 144 1.7 6.1 0.00 0.79 0.00 89 1010.2
20260503080557 56 146 0.9 2.6 0.00 0.79 0.00 92 1010.3
20260503080109 55 141 0.9 3.5 0.00 0.79 0.00 92 1010.2
20260503072557 54 165 1.7 5.2 0.00 0.79 0.00 93 1010.3
20260503072058 53 153 1.7 4.3 0.00 0.79 0.00 94 1010.3
20260503071611 53 154 1.7 3.5 0.00 0.79 0.00 94 1010.4
20260503071057 53 147 0.9 3.5 0.00 0.79 0.00 94 1010.4
20260503070600 53 169 0.0 2.6 0.00 0.79 0.00 94 1010.4
20260503060104 50 152 0.9 3.5 0.00 0.79 0.00 94 1010.0
20260503055057 50 0 0.0 1.7 0.00 0.79 0.00 94 1009.8
20260503054602 50 0 0.0 1.7 0.00 0.79 0.00 94 1010.0
20260503054101 49 0 0.0 1.7 0.00 0.79 0.00 94 1010.0
20260503053601 49 130 0.0 0.9 0.00 0.79 0.00 94 1009.9
20260503053100 49 0 0.0 0.9 0.00 0.79 0.00 94 1009.9
20260503052600 49 0 0.0 0.9 0.00 0.79 0.00 94 1009.8
20260503052102 49 130 0.0 1.7 0.00 0.79 0.00 94 1009.9
20260503051559 49 0 0.0 1.7 0.00 0.79 0.00 94 1009.8
20260503051103 48 0 0.0 1.7 0.00 0.79 0.00 94 1009.9
20260503050600 48 140 0.9 1.7 0.00 0.79 0.00 93 1009.9
20260503050057 48 352 0.9 1.7 0.00 0.79 0.00 92 1009.8
20260503045557 48 0 0.0 1.7 0.00 0.79 0.00 92 1009.7
20260503045058 49 0 0.0 1.7 0.00 0.79 0.00 92 1009.6
20260503044559 49 352 0.0 1.7 0.00 0.79 0.00 93 1009.6
20260503044100 49 0 0.0 1.7 0.00 0.79 0.00 93 1009.6
20260503043604 50 0 0.0 1.7 0.00 0.79 0.00 92 1009.6
20260503043100 50 352 0.0 2.6 0.00 0.79 0.00 93 1009.7
20260503042604 50 352 0.9 3.5 0.00 0.79 0.00 93 1009.6
20260503042057 51 352 0.9 3.5 0.00 0.79 0.00 94 1009.6
20260503041606 51 5 0.9 4.3 0.00 0.79 0.00 94 1009.6
20260503041057 51 344 1.7 4.3 0.00 0.79 0.00 94 1009.6
20260503040558 51 5 2.6 4.3 0.00 0.79 0.00 94 1009.4
20260503040057 51 352 1.7 4.3 0.00 0.79 0.00 94 1009.6
20260503035558 51 348 1.7 5.2 0.00 0.79 0.00 94 1009.6
20260503035100 51 360 1.7 5.2 0.00 0.79 0.00 94 1009.8
20260503034558 51 352 2.6 5.2 0.00 0.79 0.00 94 1009.7
20260503034057 51 23 0.9 4.3 0.00 0.79 0.00 94 1009.8
20260503033557 51 348 1.7 4.3 0.00 0.79 0.00 94 1009.9
20260503033057 51 338 0.9 2.6 0.00 0.79 0.00 94 1009.9
20260503032603 51 0 0.0 0.0 0.00 0.79 0.00 94 1010.0
20260503032057 50 0 0.0 0.0 0.00 0.79 0.00 94 1010.0
20260503031600 50 0 0.0 0.0 0.00 0.79 0.00 94 1010.1
20260503031100 50 0 0.0 0.0 0.00 0.79 0.00 94 1010.1
20260503030600 50 0 0.0 0.0 0.00 0.79 0.00 94 1010.0
20260503025600 50 0 0.0 0.0 0.00 0.79 0.00 94 1010.1
20260503025101 50 0 0.0 0.0 0.00 0.79 0.00 94 1010.1
20260503024557 50 0 0.0 0.0 0.00 0.79 0.00 94 1010.0
20260503024100 49 0 0.0 0.0 0.00 0.79 0.00 94 1010.0
20260503023557 49 0 0.0 0.0 0.00 0.79 0.00 94 1010.2
20260503023110 49 0 0.0 0.0 0.00 0.79 0.00 94 1010.3
20260503022557 49 0 0.0 0.0 0.00 0.79 0.00 94 1010.3
20260503022100 49 0 0.0 0.0 0.00 0.79 0.00 94 1010.3
20260503021602 49 0 0.0 0.0 0.00 0.79 0.00 94 1010.4
20260503021057 49 0 0.0 0.0 0.00 0.79 0.00 94 1010.3
20260503020557 49 0 0.0 0.0 0.00 0.79 0.00 94 1010.3
20260503020104 49 0 0.0 0.0 0.00 0.79 0.00 94 1010.3
20260503015557 48 0 0.0 0.0 0.00 0.79 0.00 93 1010.3
20260503015101 48 0 0.0 0.0 0.00 0.79 0.00 93 1010.3
20260503014602 48 0 0.0 0.0 0.00 0.79 0.00 92 1010.3
20260503014100 48 0 0.0 0.0 0.00 0.79 0.00 92 1010.3
20260503013559 49 0 0.0 0.0 0.00 0.79 0.00 92 1010.4
20260503013101 49 0 0.0 0.0 0.00 0.79 0.00 93 1010.4
20260503012600 49 0 0.0 0.0 0.00 0.79 0.00 93 1010.4
20260503012056 49 0 0.0 0.0 0.00 0.79 0.00 92 1010.4
20260503011626 50 0 0.0 0.0 0.00 0.79 0.00 91 1010.5
20260503011057 50 0 0.0 0.0 0.00 0.79 0.00 92 1010.4
20260503010557 51 0 0.0 0.0 0.00 0.79 0.00 93 1010.5
20260503010058 51 0 0.0 0.0 0.00 0.79 0.00 94 1010.3
20260503005602 51 0 0.0 0.0 0.00 0.79 0.00 94 1010.4
20260503005058 51 0 0.0 0.0 0.00 0.79 0.00 94 1010.5
20260503004600 51 0 0.0 0.0 0.00 0.79 0.00 94 1010.6
20260503004100 50 0 0.0 0.0 0.00 0.79 0.00 94 1010.6
20260503003600 50 0 0.0 0.0 0.00 0.79 0.00 94 1010.7
20260503003108 50 0 0.0 0.0 0.00 0.79 0.00 93 1010.7
20260503002600 50 0 0.0 0.0 0.00 0.79 0.00 93 1010.8
20260503002058 50 0 0.0 0.0 0.00 0.79 0.00 93 1010.9
20260503001600 50 0 0.0 0.0 0.00 0.79 0.00 93 1010.9
20260503001100 50 0 0.0 0.0 0.00 0.79 0.00 92 1011.0
20260503000559 50 0 0.0 0.0 0.00 0.79 0.00 92 1011.0
20260503000105 50 0 0.0 0.0 0.00 0.79 0.00 93 1011.0
20260502235600 50 0 0.0 0.0 0.00 0.79 0.00 93 1011.0
20260502235059 50 0 0.0 0.0 0.00 0.79 0.00 92 1010.9
20260502234604 50 0 0.0 0.0 0.00 0.79 0.00 92 1010.9
20260502234057 50 0 0.0 0.0 0.00 0.79 0.00 92 1011.0
20260502233557 50 0 0.0 0.0 0.00 0.79 0.00 92 1011.0
20260502233100 50 0 0.0 0.0 0.00 0.79 0.00 91 1011.0
20260502232557 51 0 0.0 0.0 0.00 0.79 0.00 90 1010.8
20260502232103 51 0 0.0 0.0 0.00 0.79 0.00 90 1010.9
20260502231559 51 0 0.0 0.0 0.00 0.79 0.00 90 1010.7
20260502231100 52 0 0.0 0.0 0.00 0.78 0.00 90 1010.8
20260502230601 52 0 0.0 1.7 0.00 0.78 0.00 91 1011.1
20260502230101 52 0 0.0 1.7 0.00 0.78 0.00 92 1011.0
20260502225559 53 13 0.9 1.7 0.00 0.78 0.78 92 1011.0
20260502225059 53 303 0.0 1.7 0.00 0.78 0.78 92 1010.9
20260502224604 53 0 0.0 1.7 0.00 0.78 0.78 92 1011.1